| time (UTC) | temp F | wind direction | speed MPH | gust MPH | rain 1hr in | rain 24hr in | rain mn in | humidity % | barometer mb |
| 20260906223534 | 98 | 83 | 3.0 | 15.0 | 0.00 | 0.00 | 0.00 | 45 | 1011.7 |
| 20260906223052 | 97 | 93 | 6.0 | 15.0 | 0.00 | 0.00 | 0.00 | 46 | 1011.7 |
| 20260906222533 | 98 | 105 | 7.0 | 15.0 | 0.00 | 0.00 | 0.00 | 46 | 1011.7 |
| 20260906222037 | 98 | 160 | 6.0 | 12.0 | 0.00 | 0.00 | 0.00 | 46 | 1011.7 |
| 20260906221552 | 98 | 160 | 6.0 | 14.0 | 0.00 | 0.00 | 0.00 | 46 | 1011.7 |
| 20260906221031 | 98 | 217 | 6.0 | 14.0 | 0.00 | 0.00 | 0.00 | 46 | 1011.6 |
| 20260906220530 | 97 | 162 | 7.0 | 14.0 | 0.00 | 0.00 | 0.00 | 47 | 1011.7 |
| 20260906220121 | 97 | 139 | 6.0 | 12.0 | 0.00 | 0.00 | 0.00 | 47 | 1011.6 |
| 20260906215531 | 97 | 117 | 5.0 | 11.0 | 0.00 | 0.00 | 0.00 | 47 | 1011.7 |
| 20260906215031 | 97 | 126 | 4.0 | 10.0 | 0.00 | 0.00 | 0.00 | 47 | 1011.7 |
| 20260906214558 | 98 | 69 | 6.0 | 12.0 | 0.00 | 0.00 | 0.00 | 46 | 1011.7 |
| 20260906214031 | 97 | 122 | 4.0 | 14.0 | 0.00 | 0.00 | 0.00 | 47 | 1011.7 |
| 20260906213531 | 98 | 123 | 7.0 | 14.0 | 0.00 | 0.00 | 0.00 | 46 | 1011.7 |
| 20260906213058 | 98 | 151 | 5.0 | 14.0 | 0.00 | 0.00 | 0.00 | 45 | 1011.8 |
| 20260906212530 | 98 | 231 | 4.0 | 11.0 | 0.00 | 0.00 | 0.00 | 47 | 1011.9 |
| 20260906212126 | 97 | 132 | 4.0 | 12.0 | 0.00 | 0.00 | 0.00 | 47 | 1012.0 |
| 20260906211610 | 98 | 118 | 5.0 | 12.0 | 0.00 | 0.00 | 0.00 | 46 | 1012.1 |
| 20260906211035 | 98 | 135 | 3.0 | 11.0 | 0.00 | 0.00 | 0.00 | 47 | 1012.1 |
| 20260906210536 | 98 | 36 | 5.0 | 12.0 | 0.00 | 0.00 | 0.00 | 46 | 1012.1 |
| 20260906210111 | 98 | 119 | 7.0 | 12.0 | 0.00 | 0.00 | 0.00 | 46 | 1012.2 |
| 20260906205535 | 98 | 0 | 4.0 | 16.0 | 0.00 | 0.00 | 0.00 | 46 | 1012.2 |
| 20260906205036 | 97 | 114 | 7.0 | 16.0 | 0.00 | 0.00 | 0.00 | 47 | 1012.2 |
| 20260906204554 | 98 | 117 | 4.0 | 18.0 | 0.00 | 0.00 | 0.00 | 46 | 1012.3 |
| 20260906204036 | 98 | 125 | 6.0 | 18.0 | 0.00 | 0.00 | 0.00 | 46 | 1012.3 |
| 20260906203535 | 98 | 147 | 7.0 | 16.0 | 0.00 | 0.00 | 0.00 | 45 | 1012.5 |
| 20260906203101 | 98 | 92 | 4.0 | 16.0 | 0.00 | 0.00 | 0.00 | 46 | 1012.4 |
| 20260906202535 | 98 | 136 | 4.0 | 16.0 | 0.00 | 0.00 | 0.00 | 47 | 1012.5 |
| 20260906202035 | 97 | 146 | 8.0 | 16.0 | 0.00 | 0.00 | 0.00 | 46 | 1012.7 |
| 20260906201558 | 97 | 73 | 3.0 | 13.0 | 0.00 | 0.00 | 0.00 | 46 | 1012.7 |
| 20260906201035 | 98 | 131 | 7.0 | 13.0 | 0.00 | 0.00 | 0.00 | 46 | 1012.7 |
| 20260906200535 | 98 | 77 | 5.0 | 11.0 | 0.00 | 0.00 | 0.00 | 45 | 1012.8 |
| 20260906200057 | 98 | 129 | 7.0 | 11.0 | 0.00 | 0.00 | 0.00 | 46 | 1012.9 |
| 20260906195536 | 97 | 93 | 4.0 | 10.0 | 0.00 | 0.00 | 0.00 | 47 | 1012.9 |
| 20260906195036 | 97 | 47 | 5.0 | 10.0 | 0.00 | 0.00 | 0.00 | 47 | 1012.9 |
| 20260906194615 | 97 | 108 | 5.0 | 9.0 | 0.00 | 0.00 | 0.00 | 46 | 1013.0 |
| 20260906194036 | 97 | 133 | 3.0 | 11.0 | 0.00 | 0.00 | 0.00 | 47 | 1013.0 |
| 20260906193536 | 97 | 127 | 4.0 | 11.0 | 0.00 | 0.00 | 0.00 | 46 | 1013.1 |
| 20260906193104 | 98 | 131 | 4.0 | 11.0 | 0.00 | 0.00 | 0.00 | 46 | 1013.1 |
| 20260906192535 | 97 | 226 | 5.0 | 9.0 | 0.00 | 0.00 | 0.00 | 47 | 1013.3 |
| 20260906192036 | 97 | 128 | 4.0 | 9.0 | 0.00 | 0.00 | 0.00 | 48 | 1013.4 |
| 20260906191548 | 97 | 169 | 3.0 | 15.0 | 0.00 | 0.00 | 0.00 | 48 | 1013.4 |
| 20260906191035 | 97 | 121 | 7.0 | 15.0 | 0.00 | 0.00 | 0.00 | 47 | 1013.5 |
| 20260906190536 | 96 | 127 | 7.0 | 13.0 | 0.00 | 0.00 | 0.00 | 48 | 1013.5 |
| 20260906185535 | 98 | 126 | 7.0 | 11.0 | 0.00 | 0.00 | 0.00 | 46 | 1013.6 |
| 20260906185038 | 97 | 138 | 3.0 | 15.0 | 0.00 | 0.00 | 0.00 | 47 | 1013.7 |
| 20260906184607 | 97 | 146 | 5.0 | 15.0 | 0.00 | 0.00 | 0.00 | 47 | 1013.6 |
| 20260906184039 | 97 | 159 | 8.0 | 15.0 | 0.00 | 0.00 | 0.00 | 48 | 1013.7 |
| 20260906183536 | 96 | 151 | 4.0 | 12.0 | 0.00 | 0.00 | 0.00 | 49 | 1013.6 |
| 20260906183101 | 96 | 110 | 8.0 | 12.0 | 0.00 | 0.00 | 0.00 | 48 | 1013.7 |
| 20260906182535 | 97 | 141 | 6.0 | 10.0 | 0.00 | 0.00 | 0.00 | 49 | 1013.9 |
| 20260906182038 | 96 | 175 | 4.0 | 9.0 | 0.00 | 0.00 | 0.00 | 50 | 1014.0 |
| 20260906181600 | 95 | 153 | 3.0 | 12.0 | 0.00 | 0.00 | 0.00 | 51 | 1014.1 |
| 20260906181030 | 96 | 58 | 4.0 | 14.0 | 0.00 | 0.00 | 0.00 | 50 | 1014.2 |
| 20260906180535 | 96 | 131 | 8.0 | 14.0 | 0.00 | 0.00 | 0.00 | 50 | 1014.3 |
| 20260906180048 | 96 | 145 | 5.0 | 12.0 | 0.00 | 0.00 | 0.00 | 51 | 1014.3 |
| 20260906175531 | 95 | 103 | 5.0 | 13.0 | 0.00 | 0.00 | 0.00 | 51 | 1014.3 |
| 20260906175037 | 95 | 70 | 7.0 | 13.0 | 0.00 | 0.00 | 0.00 | 51 | 1014.5 |
| 20260906174555 | 95 | 122 | 5.0 | 13.0 | 0.00 | 0.00 | 0.00 | 51 | 1014.6 |
| 20260906174034 | 95 | 165 | 7.0 | 13.0 | 0.00 | 0.00 | 0.00 | 52 | 1014.6 |
| 20260906173531 | 95 | 175 | 6.0 | 16.0 | 0.00 | 0.00 | 0.00 | 52 | 1014.6 |
| 20260906173052 | 95 | 186 | 8.0 | 16.0 | 0.00 | 0.00 | 0.00 | 52 | 1014.7 |
| 20260906172531 | 95 | 105 | 10.0 | 16.0 | 0.00 | 0.00 | 0.00 | 52 | 1014.8 |
| 20260906172030 | 95 | 168 | 3.0 | 12.0 | 0.00 | 0.00 | 0.00 | 52 | 1014.7 |
| 20260906171607 | 95 | 102 | 7.0 | 12.0 | 0.00 | 0.00 | 0.00 | 53 | 1014.8 |
| 20260906171034 | 94 | 156 | 4.0 | 11.0 | 0.00 | 0.00 | 0.00 | 54 | 1014.9 |
| 20260906170530 | 94 | 139 | 4.0 | 12.0 | 0.00 | 0.00 | 0.00 | 54 | 1015.0 |
| 20260906170059 | 94 | 103 | 7.0 | 12.0 | 0.00 | 0.00 | 0.00 | 53 | 1015.1 |
| 20260906165531 | 94 | 225 | 6.0 | 11.0 | 0.00 | 0.00 | 0.00 | 54 | 1015.2 |
| 20260906165036 | 94 | 152 | 3.0 | 9.0 | 0.00 | 0.00 | 0.00 | 55 | 1015.1 |
| 20260906164559 | 93 | 108 | 4.0 | 9.0 | 0.00 | 0.00 | 0.00 | 56 | 1015.3 |
| 20260906164036 | 93 | 108 | 4.0 | 9.0 | 0.00 | 0.00 | 0.00 | 54 | 1015.3 |
| 20260906163532 | 93 | 160 | 4.0 | 10.0 | 0.00 | 0.00 | 0.00 | 55 | 1015.2 |
| 20260906163054 | 92 | 89 | 5.0 | 10.0 | 0.00 | 0.00 | 0.00 | 56 | 1015.1 |
| 20260906162534 | 92 | 89 | 6.0 | 10.0 | 0.00 | 0.00 | 0.00 | 56 | 1015.1 |
| 20260906162030 | 92 | 89 | 5.0 | 10.0 | 0.00 | 0.00 | 0.00 | 56 | 1015.1 |
| 20260906161559 | 92 | 156 | 3.0 | 9.0 | 0.00 | 0.00 | 0.00 | 57 | 1015.0 |
| 20260906161033 | 92 | 77 | 5.0 | 11.0 | 0.00 | 0.00 | 0.00 | 57 | 1015.0 |
| 20260906160533 | 92 | 83 | 5.0 | 11.0 | 0.00 | 0.00 | 0.00 | 57 | 1015.0 |
| 20260906160059 | 92 | 110 | 3.0 | 10.0 | 0.00 | 0.00 | 0.00 | 57 | 1015.0 |
| 20260906155535 | 91 | 95 | 5.0 | 10.0 | 0.00 | 0.00 | 0.00 | 57 | 1015.0 |
| 20260906155034 | 91 | 128 | 5.0 | 9.0 | 0.00 | 0.00 | 0.00 | 58 | 1015.0 |
| 20260906154555 | 91 | 188 | 3.0 | 8.0 | 0.00 | 0.00 | 0.00 | 58 | 1015.0 |
| 20260906154036 | 91 | 176 | 5.0 | 9.0 | 0.00 | 0.00 | 0.00 | 59 | 1015.0 |
| 20260906153534 | 90 | 113 | 6.0 | 9.0 | 0.00 | 0.00 | 0.00 | 59 | 1015.0 |
| 20260906153049 | 90 | 53 | 1.0 | 7.0 | 0.00 | 0.00 | 0.00 | 60 | 1015.0 |
| 20260906152533 | 91 | 113 | 1.0 | 6.0 | 0.00 | 0.00 | 0.00 | 60 | 1014.9 |
| 20260906152033 | 90 | 15 | 4.0 | 6.0 | 0.00 | 0.00 | 0.00 | 61 | 1014.9 |
| 20260906151549 | 90 | 102 | 2.0 | 6.0 | 0.00 | 0.00 | 0.00 | 62 | 1014.9 |
| 20260906151033 | 89 | 173 | 2.0 | 6.0 | 0.00 | 0.00 | 0.00 | 64 | 1014.9 |
| 20260906150533 | 89 | 113 | 1.0 | 5.0 | 0.00 | 0.00 | 0.00 | 64 | 1014.8 |
| 20260906150104 | 89 | 330 | 1.0 | 4.0 | 0.00 | 0.00 | 0.00 | 67 | 1014.9 |
| 20260906145533 | 89 | 16 | 2.0 | 4.0 | 0.00 | 0.00 | 0.00 | 65 | 1014.7 |
| 20260906145034 | 89 | 126 | 2.0 | 3.0 | 0.00 | 0.00 | 0.00 | 68 | 1014.9 |
| 20260906144602 | 88 | 176 | 0.0 | 5.0 | 0.00 | 0.00 | 0.00 | 69 | 1014.8 |
| 20260906144033 | 87 | 337 | 0.0 | 5.0 | 0.00 | 0.00 | 0.00 | 71 | 1014.7 |
| 20260906143535 | 87 | 65 | 0.0 | 4.0 | 0.00 | 0.00 | 0.00 | 72 | 1014.8 |
| 20260906143051 | 86 | 73 | 1.0 | 4.0 | 0.00 | 0.00 | 0.00 | 73 | 1014.9 |
| 20260906142533 | 85 | 113 | 1.0 | 4.0 | 0.00 | 0.00 | 0.00 | 76 | 1015.0 |
| 20260906142034 | 85 | 39 | 2.0 | 4.0 | 0.00 | 0.00 | 0.00 | 77 | 1015.1 |
| 20260906141549 | 84 | 34 | 1.0 | 4.0 | 0.00 | 0.00 | 0.00 | 77 | 1015.1 |
| 20260906141036 | 84 | 40 | 2.0 | 4.0 | 0.00 | 0.00 | 0.00 | 78 | 1015.1 |
| 20260906140535 | 84 | 59 | 1.0 | 4.0 | 0.00 | 0.00 | 0.00 | 78 | 1015.0 |
| 20260906140107 | 83 | 49 | 2.0 | 4.0 | 0.00 | 0.00 | 0.00 | 79 | 1015.1 |
| 20260906135534 | 83 | 72 | 2.0 | 4.0 | 0.00 | 0.00 | 0.00 | 81 | 1015.0 |
| 20260906135033 | 82 | 81 | 2.0 | 4.0 | 0.00 | 0.00 | 0.00 | 81 | 1014.9 |
| 20260906134550 | 83 | 76 | 2.0 | 3.0 | 0.00 | 0.00 | 0.00 | 81 | 1015.0 |
| 20260906134034 | 82 | 75 | 1.0 | 2.0 | 0.00 | 0.00 | 0.00 | 82 | 1015.0 |
| 20260906133532 | 82 | 86 | 0.0 | 3.0 | 0.00 | 0.00 | 0.00 | 83 | 1015.0 |
| 20260906133050 | 81 | 80 | 1.0 | 3.0 | 0.00 | 0.00 | 0.00 | 84 | 1015.1 |
| 20260906132534 | 81 | 58 | 1.0 | 3.0 | 0.00 | 0.00 | 0.00 | 85 | 1015.0 |
| 20260906132034 | 81 | 95 | 1.0 | 3.0 | 0.00 | 0.00 | 0.00 | 85 | 1015.0 |
| 20260906131549 | 80 | 80 | 1.0 | 3.0 | 0.00 | 0.00 | 0.00 | 86 | 1015.0 |
| 20260906131034 | 80 | 106 | 1.0 | 3.0 | 0.00 | 0.00 | 0.00 | 86 | 1015.1 |
| 20260906130533 | 80 | 70 | 1.0 | 2.0 | 0.00 | 0.00 | 0.00 | 86 | 1014.9 |
| 20260906130057 | 79 | 69 | 0.0 | 2.0 | 0.00 | 0.00 | 0.00 | 87 | 1014.7 |
| 20260906125537 | 79 | 72 | 0.0 | 2.0 | 0.00 | 0.00 | 0.00 | 88 | 1014.8 |
| 20260906125035 | 78 | 69 | 0.0 | 2.0 | 0.00 | 0.00 | 0.00 | 89 | 1014.8 |
| 20260906124552 | 78 | 62 | 0.0 | 2.0 | 0.00 | 0.00 | 0.00 | 89 | 1014.7 |
| 20260906124034 | 78 | 60 | 0.0 | 1.0 | 0.00 | 0.00 | 0.00 | 89 | 1014.7 |
| 20260906123534 | 77 | 67 | 0.0 | 1.0 | 0.00 | 0.00 | 0.00 | 90 | 1014.6 |
| 20260906123050 | 77 | 65 | 0.0 | 1.0 | 0.00 | 0.00 | 0.00 | 91 | 1014.5 |
| 20260906122535 | 76 | 0 | 0.0 | 1.0 | 0.00 | 0.00 | 0.00 | 92 | 1014.5 |
| 20260906122031 | 76 | 0 | 0.0 | 1.0 | 0.00 | 0.00 | 0.00 | 92 | 1014.5 |
| 20260906121557 | 76 | 53 | 0.0 | 1.0 | 0.00 | 0.00 | 0.00 | 92 | 1014.5 |
| 20260906121033 | 76 | 71 | 0.0 | 1.0 | 0.00 | 0.00 | 0.00 | 92 | 1014.4 |
| 20260906120532 | 76 | 70 | 0.0 | 1.0 | 0.00 | 0.00 | 0.00 | 92 | 1014.3 |
| 20260906120106 | 76 | 0 | 0.0 | 1.0 | 0.00 | 0.00 | 0.00 | 92 | 1014.2 |
| 20260906115536 | 76 | 70 | 0.0 | 1.0 | 0.00 | 0.00 | 0.00 | 91 | 1014.3 |
| 20260906115033 | 76 | 0 | 0.0 | 1.0 | 0.00 | 0.00 | 0.00 | 91 | 1014.3 |
| 20260906114552 | 77 | 0 | 0.0 | 1.0 | 0.00 | 0.00 | 0.00 | 91 | 1014.3 |
| 20260906114034 | 77 | 0 | 0.0 | 2.0 | 0.00 | 0.00 | 0.00 | 91 | 1014.3 |
| 20260906113534 | 77 | 0 | 0.0 | 2.0 | 0.00 | 0.00 | 0.00 | 91 | 1014.2 |
| 20260906113058 | 77 | 0 | 0.0 | 2.0 | 0.00 | 0.00 | 0.00 | 91 | 1014.3 |
| 20260906112533 | 77 | 122 | 0.0 | 1.0 | 0.00 | 0.00 | 0.00 | 91 | 1014.1 |
| 20260906112031 | 77 | 122 | 0.0 | 1.0 | 0.00 | 0.00 | 0.00 | 90 | 1014.1 |
| 20260906111550 | 77 | 0 | 0.0 | 1.0 | 0.00 | 0.00 | 0.00 | 90 | 1014.0 |
| 20260906111034 | 77 | 0 | 0.0 | 1.0 | 0.00 | 0.00 | 0.00 | 90 | 1014.0 |
| 20260906110534 | 77 | 0 | 0.0 | 1.0 | 0.00 | 0.00 | 0.00 | 90 | 1014.0 |
| 20260906110055 | 77 | 0 | 0.0 | 1.0 | 0.00 | 0.00 | 0.00 | 90 | 1013.9 |
| 20260906105534 | 77 | 122 | 0.0 | 1.0 | 0.00 | 0.00 | 0.00 | 90 | 1014.0 |
| 20260906105034 | 77 | 0 | 0.0 | 1.0 | 0.00 | 0.00 | 0.00 | 90 | 1013.8 |
| 20260906104608 | 77 | 0 | 0.0 | 1.0 | 0.00 | 0.00 | 0.00 | 90 | 1013.6 |
| 20260906104034 | 77 | 128 | 0.0 | 1.0 | 0.00 | 0.00 | 0.00 | 89 | 1013.7 |
| 20260906103533 | 77 | 128 | 0.0 | 1.0 | 0.00 | 0.00 | 0.00 | 89 | 1013.6 |
| 20260906103058 | 77 | 144 | 0.0 | 1.0 | 0.00 | 0.00 | 0.00 | 89 | 1013.6 |
| 20260906102536 | 77 | 0 | 0.0 | 2.0 | 0.00 | 0.00 | 0.00 | 89 | 1013.5 |
| 20260906102034 | 77 | 0 | 0.0 | 2.0 | 0.00 | 0.00 | 0.00 | 89 | 1013.5 |
| 20260906101556 | 77 | 0 | 0.0 | 2.0 | 0.00 | 0.00 | 0.00 | 89 | 1013.6 |
| 20260906101034 | 77 | 115 | 0.0 | 2.0 | 0.00 | 0.00 | 0.00 | 89 | 1013.6 |
| 20260906100534 | 78 | 117 | 0.0 | 1.0 | 0.00 | 0.00 | 0.00 | 88 | 1013.6 |
| 20260906100054 | 78 | 112 | 0.0 | 0.0 | 0.00 | 0.00 | 0.00 | 88 | 1013.7 |
| 20260906095534 | 78 | 0 | 0.0 | 0.0 | 0.00 | 0.00 | 0.00 | 87 | 1013.6 |
| 20260906095033 | 78 | 0 | 0.0 | 0.0 | 0.00 | 0.00 | 0.00 | 87 | 1013.6 |
| 20260906094622 | 78 | 0 | 0.0 | 0.0 | 0.00 | 0.00 | 0.00 | 87 | 1013.5 |
| 20260906094034 | 78 | 0 | 0.0 | 0.0 | 0.00 | 0.00 | 0.00 | 87 | 1013.5 |
| 20260906093534 | 78 | 0 | 0.0 | 1.0 | 0.00 | 0.00 | 0.00 | 87 | 1013.4 |
| 20260906093101 | 78 | 0 | 0.0 | 1.0 | 0.00 | 0.00 | 0.00 | 87 | 1013.4 |
| 20260906092534 | 78 | 139 | 0.0 | 1.0 | 0.00 | 0.00 | 0.00 | 87 | 1013.3 |
| 20260906092035 | 78 | 0 | 0.0 | 1.0 | 0.00 | 0.00 | 0.00 | 86 | 1013.3 |
| 20260906091602 | 78 | 0 | 0.0 | 1.0 | 0.00 | 0.00 | 0.00 | 86 | 1013.3 |
| 20260906091036 | 78 | 136 | 0.0 | 1.0 | 0.00 | 0.00 | 0.00 | 86 | 1013.3 |
| 20260906090535 | 78 | 0 | 0.0 | 1.0 | 0.00 | 0.00 | 0.00 | 86 | 1013.2 |
| 20260906090056 | 79 | 0 | 0.0 | 2.0 | 0.00 | 0.00 | 0.00 | 86 | 1013.3 |
| 20260906085534 | 79 | 0 | 0.0 | 3.0 | 0.00 | 0.00 | 0.00 | 85 | 1013.2 |
| 20260906085035 | 79 | 159 | 1.0 | 4.0 | 0.00 | 0.00 | 0.00 | 85 | 1013.2 |
| 20260906084550 | 79 | 0 | 2.0 | 4.0 | 0.00 | 0.00 | 0.00 | 85 | 1013.0 |
| 20260906084035 | 79 | 149 | 2.0 | 4.0 | 0.00 | 0.00 | 0.00 | 84 | 1013.1 |
| 20260906083535 | 79 | 136 | 2.0 | 4.0 | 0.00 | 0.00 | 0.00 | 84 | 1013.0 |
| 20260906083059 | 79 | 103 | 1.0 | 2.0 | 0.00 | 0.00 | 0.00 | 84 | 1013.0 |
| 20260906082534 | 79 | 128 | 0.0 | 3.0 | 0.00 | 0.00 | 0.00 | 84 | 1013.0 |
| 20260906082034 | 79 | 127 | 0.0 | 3.0 | 0.00 | 0.00 | 0.00 | 83 | 1012.9 |
| 20260906081557 | 79 | 143 | 2.0 | 5.0 | 0.00 | 0.00 | 0.00 | 83 | 1013.0 |
| 20260906081034 | 79 | 149 | 0.0 | 5.0 | 0.00 | 0.00 | 0.00 | 83 | 1013.0 |
| 20260906080535 | 80 | 153 | 2.0 | 5.0 | 0.00 | 0.00 | 0.00 | 83 | 1013.1 |
| 20260906080056 | 80 | 172 | 0.0 | 3.0 | 0.00 | 0.00 | 0.00 | 82 | 1013.0 |
| 20260906075535 | 80 | 0 | 0.0 | 3.0 | 0.00 | 0.00 | 0.00 | 82 | 1012.9 |
| 20260906075034 | 80 | 0 | 0.0 | 3.0 | 0.00 | 0.00 | 0.00 | 82 | 1012.8 |
| 20260906074555 | 80 | 191 | 2.0 | 4.0 | 0.00 | 0.00 | 0.00 | 81 | 1012.8 |
| 20260906074033 | 80 | 182 | 1.0 | 4.0 | 0.00 | 0.00 | 0.00 | 81 | 1012.9 |
| 20260906073535 | 80 | 200 | 1.0 | 3.0 | 0.00 | 0.00 | 0.00 | 81 | 1012.9 |
| 20260906073057 | 80 | 163 | 1.0 | 4.0 | 0.00 | 0.00 | 0.00 | 80 | 1012.9 |
| 20260906072531 | 80 | 147 | 0.0 | 6.0 | 0.00 | 0.00 | 0.00 | 80 | 1012.9 |
| 20260906072034 | 80 | 164 | 2.0 | 6.0 | 0.00 | 0.00 | 0.00 | 80 | 1013.0 |
| 20260906071555 | 80 | 158 | 2.0 | 6.0 | 0.00 | 0.00 | 0.00 | 80 | 1013.1 |
| 20260906071036 | 80 | 168 | 1.0 | 4.0 | 0.00 | 0.00 | 0.00 | 79 | 1013.1 |
| 20260906070534 | 81 | 195 | 1.0 | 4.0 | 0.00 | 0.00 | 0.00 | 79 | 1013.2 |
| 20260906070057 | 81 | 168 | 2.0 | 3.0 | 0.00 | 0.00 | 0.00 | 79 | 1013.3 |
| 20260906065535 | 81 | 163 | 1.0 | 3.0 | 0.00 | 0.00 | 0.00 | 79 | 1013.4 |
| 20260906065035 | 81 | 168 | 1.0 | 4.0 | 0.00 | 0.00 | 0.00 | 79 | 1013.4 |
| 20260906064551 | 81 | 0 | 1.0 | 6.0 | 0.00 | 0.00 | 0.00 | 78 | 1013.4 |
| 20260906064035 | 81 | 159 | 1.0 | 6.0 | 0.00 | 0.00 | 0.00 | 78 | 1013.4 |
| 20260906063530 | 81 | 171 | 3.0 | 6.0 | 0.00 | 0.00 | 0.00 | 78 | 1013.4 |
| 20260906063057 | 81 | 159 | 3.0 | 9.0 | 0.00 | 0.00 | 0.00 | 78 | 1013.4 |
| 20260906062530 | 82 | 153 | 3.0 | 9.0 | 0.00 | 0.00 | 0.00 | 78 | 1013.3 |
| 20260906062034 | 82 | 117 | 5.0 | 9.0 | 0.00 | 0.00 | 0.00 | 78 | 1013.3 |
| 20260906061600 | 82 | 129 | 3.0 | 5.0 | 0.00 | 0.00 | 0.00 | 78 | 1013.2 |
| 20260906061034 | 82 | 140 | 2.0 | 5.0 | 0.00 | 0.00 | 0.00 | 77 | 1013.0 |
| 20260906060534 | 82 | 139 | 2.0 | 6.0 | 0.00 | 0.00 | 0.00 | 77 | 1013.1 |
| 20260906060058 | 82 | 137 | 3.0 | 6.0 | 0.00 | 0.00 | 0.00 | 77 | 1013.1 |
| 20260906055534 | 82 | 139 | 3.0 | 6.0 | 0.00 | 0.00 | 0.00 | 77 | 1013.2 |
| 20260906055031 | 82 | 136 | 3.0 | 6.0 | 0.00 | 0.00 | 0.00 | 77 | 1013.4 |
| 20260906054551 | 82 | 163 | 1.0 | 4.0 | 0.00 | 0.00 | 0.00 | 77 | 1013.4 |
| 20260906054034 | 82 | 137 | 0.0 | 4.0 | 0.00 | 0.00 | 0.00 | 77 | 1013.4 |
| 20260906053531 | 82 | 136 | 2.0 | 4.0 | 0.00 | 0.00 | 0.00 | 76 | 1013.3 |
| 20260906053050 | 82 | 238 | 0.0 | 2.0 | 0.00 | 0.00 | 0.00 | 76 | 1013.3 |
| 20260906052531 | 82 | 170 | 0.0 | 2.0 | 0.00 | 0.00 | 0.00 | 76 | 1013.3 |
| 20260906052031 | 83 | 239 | 0.0 | 3.0 | 0.00 | 0.00 | 0.00 | 76 | 1013.3 |
| 20260906051546 | 83 | 0 | 0.0 | 3.0 | 0.00 | 0.00 | 0.00 | 76 | 1013.2 |
| 20260906051031 | 83 | 160 | 1.0 | 5.0 | 0.00 | 0.00 | 0.00 | 76 | 1013.2 |
| 20260906050534 | 83 | 163 | 2.0 | 5.0 | 0.00 | 0.00 | 0.00 | 75 | 1013.2 |
| 20260906050115 | 83 | 166 | 1.0 | 3.0 | 0.00 | 0.00 | 0.00 | 75 | 1013.2 |
| 20260906045534 | 83 | 193 | 0.0 | 4.0 | 0.00 | 0.00 | 0.00 | 75 | 1013.2 |
| 20260906045034 | 83 | 161 | 1.0 | 4.0 | 0.00 | 0.00 | 0.00 | 75 | 1013.4 |
| 20260906044554 | 83 | 155 | 2.0 | 4.0 | 0.00 | 0.00 | 0.00 | 74 | 1013.4 |
| 20260906044034 | 83 | 138 | 2.0 | 4.0 | 0.00 | 0.00 | 0.00 | 74 | 1013.5 |
| 20260906043531 | 83 | 170 | 1.0 | 4.0 | 0.00 | 0.00 | 0.00 | 74 | 1013.5 |
| 20260906043049 | 83 | 111 | 2.0 | 4.0 | 0.00 | 0.00 | 0.00 | 73 | 1013.6 |
| 20260906042534 | 84 | 147 | 1.0 | 5.0 | 0.00 | 0.00 | 0.00 | 73 | 1013.4 |
| 20260906042034 | 84 | 144 | 3.0 | 5.0 | 0.00 | 0.00 | 0.00 | 73 | 1013.2 |
| 20260906041558 | 84 | 142 | 2.0 | 5.0 | 0.00 | 0.00 | 0.00 | 72 | 1013.3 |
| 20260906041035 | 84 | 136 | 3.0 | 5.0 | 0.00 | 0.00 | 0.00 | 72 | 1013.4 |
| 20260906040537 | 84 | 136 | 2.0 | 6.0 | 0.00 | 0.00 | 0.00 | 72 | 1013.3 |
| 20260906040125 | 84 | 136 | 3.0 | 6.0 | 0.00 | 0.00 | 0.00 | 71 | 1013.3 |
| 20260906035539 | 84 | 124 | 3.0 | 6.0 | 0.00 | 0.00 | 0.00 | 71 | 1013.2 |
| 20260906035037 | 85 | 151 | 2.0 | 5.0 | 0.00 | 0.00 | 0.00 | 70 | 1013.2 |
| 20260906034601 | 85 | 0 | 1.0 | 5.0 | 0.00 | 0.00 | 0.00 | 70 | 1013.4 |
| 20260906034033 | 85 | 237 | 2.0 | 4.0 | 0.00 | 0.00 | 0.00 | 69 | 1013.3 |
| 20260906033533 | 85 | 219 | 1.0 | 3.0 | 0.00 | 0.00 | 0.00 | 68 | 1013.2 |
| 20260906033049 | 85 | 0 | 0.0 | 3.0 | 0.00 | 0.00 | 0.00 | 67 | 1013.2 |
| 20260906032533 | 85 | 162 | 1.0 | 3.0 | 0.00 | 0.00 | 0.00 | 67 | 1013.4 |
| 20260906032031 | 85 | 165 | 1.0 | 3.0 | 0.00 | 0.00 | 0.00 | 67 | 1013.4 |
| 20260906031601 | 86 | 137 | 1.0 | 3.0 | 0.00 | 0.00 | 0.00 | 66 | 1013.3 |
| 20260906031034 | 86 | 145 | 1.0 | 5.0 | 0.00 | 0.00 | 0.00 | 66 | 1013.4 |
| 20260906030534 | 86 | 150 | 1.0 | 6.0 | 0.00 | 0.00 | 0.00 | 66 | 1013.4 |
| 20260906030053 | 86 | 187 | 2.0 | 7.0 | 0.00 | 0.00 | 0.00 | 65 | 1013.4 |
| 20260906025534 | 86 | 193 | 3.0 | 9.0 | 0.00 | 0.00 | 0.00 | 65 | 1013.4 |
| 20260906025031 | 86 | 169 | 2.0 | 9.0 | 0.00 | 0.00 | 0.00 | 64 | 1013.4 |
| 20260906024550 | 87 | 158 | 5.0 | 9.0 | 0.00 | 0.00 | 0.00 | 64 | 1013.4 |
| 20260906024035 | 87 | 117 | 4.0 | 9.0 | 0.00 | 0.00 | 0.00 | 64 | 1013.1 |
| 20260906023534 | 87 | 179 | 5.0 | 9.0 | 0.00 | 0.00 | 0.00 | 64 | 1012.9 |
| 20260906023050 | 87 | 141 | 4.0 | 8.0 | 0.00 | 0.00 | 0.00 | 64 | 1012.8 |
| 20260906022534 | 87 | 168 | 4.0 | 10.0 | 0.00 | 0.00 | 0.00 | 63 | 1012.8 |
| 20260906022038 | 87 | 164 | 4.0 | 10.0 | 0.00 | 0.00 | 0.00 | 63 | 1012.7 |
| 20260906021600 | 87 | 200 | 5.0 | 11.0 | 0.00 | 0.00 | 0.00 | 63 | 1012.6 |
| 20260906021033 | 88 | 215 | 4.0 | 11.0 | 0.00 | 0.00 | 0.00 | 62 | 1012.5 |
| 20260906020534 | 88 | 178 | 5.0 | 11.0 | 0.00 | 0.00 | 0.00 | 62 | 1012.4 |
| 20260906020100 | 88 | 139 | 5.0 | 11.0 | 0.00 | 0.00 | 0.00 | 62 | 1012.4 |
| 20260906015534 | 88 | 147 | 1.0 | 7.0 | 0.00 | 0.00 | 0.00 | 62 | 1012.3 |
| 20260906015034 | 89 | 156 | 3.0 | 8.0 | 0.00 | 0.00 | 0.00 | 61 | 1012.3 |
| 20260906014559 | 89 | 144 | 5.0 | 9.0 | 0.00 | 0.00 | 0.00 | 61 | 1012.2 |
| 20260906014033 | 89 | 167 | 4.0 | 10.0 | 0.00 | 0.00 | 0.00 | 60 | 1012.2 |
| 20260906013534 | 89 | 165 | 4.0 | 10.0 | 0.00 | 0.00 | 0.00 | 59 | 1012.2 |
| 20260906013052 | 90 | 113 | 5.0 | 12.0 | 0.00 | 0.00 | 0.00 | 59 | 1012.1 |
| 20260906012533 | 90 | 137 | 6.0 | 17.0 | 0.00 | 0.00 | 0.00 | 59 | 1012.2 |
| 20260906012034 | 90 | 161 | 8.0 | 17.0 | 0.00 | 0.00 | 0.00 | 58 | 1012.1 |
| 20260906011551 | 91 | 129 | 6.0 | 15.0 | 0.00 | 0.00 | 0.00 | 58 | 1012.0 |
| 20260906011037 | 91 | 139 | 8.0 | 15.0 | 0.00 | 0.00 | 0.00 | 57 | 1011.9 |
| 20260906010533 | 92 | 122 | 9.0 | 17.0 | 0.00 | 0.00 | 0.00 | 56 | 1011.8 |
| 20260906010056 | 93 | 128 | 9.0 | 17.0 | 0.00 | 0.00 | 0.00 | 52 | 1011.8 |
| 20260906005530 | 94 | 109 | 1.0 | 3.0 | 0.00 | 0.00 | 0.00 | 47 | 1011.6 |
| 20260906005033 | 94 | 157 | 1.0 | 5.0 | 0.00 | 0.00 | 0.00 | 47 | 1011.5 |
| 20260906004600 | 95 | 131 | 2.0 | 6.0 | 0.00 | 0.00 | 0.00 | 47 | 1011.5 |
| 20260906004033 | 95 | 251 | 3.0 | 6.0 | 0.00 | 0.00 | 0.00 | 46 | 1011.4 |
| 20260906003534 | 95 | 119 | 3.0 | 6.0 | 0.00 | 0.00 | 0.00 | 46 | 1011.4 |
| 20260906003053 | 96 | 155 | 4.0 | 6.0 | 0.00 | 0.00 | 0.00 | 46 | 1011.4 |
| 20260906002534 | 96 | 156 | 4.0 | 9.0 | 0.00 | 0.00 | 0.00 | 46 | 1011.5 |
| 20260906002031 | 96 | 204 | 4.0 | 9.0 | 0.00 | 0.00 | 0.00 | 46 | 1011.5 |
| 20260906001600 | 97 | 148 | 3.0 | 7.0 | 0.00 | 0.00 | 0.00 | 45 | 1011.5 |
| 20260906001030 | 97 | 122 | 3.0 | 6.0 | 0.00 | 0.00 | 0.00 | 45 | 1011.5 |
| 20260906000534 | 97 | 174 | 3.0 | 8.0 | 0.00 | 0.00 | 0.00 | 45 | 1011.5 |
| 20260906000100 | 97 | 103 | 3.0 | 8.0 | 0.00 | 0.00 | 0.00 | 45 | 1011.4 |
| 20260905235534 | 98 | 110 | 4.0 | 7.0 | 0.00 | 0.00 | 0.00 | 44 | 1011.5 |
| 20260905235034 | 98 | 141 | 3.0 | 6.0 | 0.00 | 0.00 | 0.00 | 44 | 1011.4 |
| 20260905234558 | 98 | 246 | 0.0 | 6.0 | 0.00 | 0.00 | 0.00 | 45 | 1011.4 |
| 20260905234035 | 98 | 134 | 3.0 | 9.0 | 0.00 | 0.00 | 0.00 | 44 | 1011.3 |
| 20260905233534 | 98 | 122 | 4.0 | 10.0 | 0.00 | 0.00 | 0.00 | 44 | 1011.3 |
| 20260905233100 | 98 | 120 | 5.0 | 10.0 | 0.00 | 0.00 | 0.00 | 44 | 1011.3 |
| 20260905232534 | 99 | 143 | 2.0 | 8.0 | 0.00 | 0.00 | 0.00 | 43 | 1011.2 |
| 20260905232034 | 99 | 153 | 2.0 | 7.0 | 0.00 | 0.00 | 0.00 | 43 | 1011.3 |
| 20260905231549 | 99 | 248 | 2.0 | 7.0 | 0.00 | 0.00 | 0.00 | 43 | 1011.3 |
| 20260905231033 | 98 | 224 | 0.0 | 6.0 | 0.00 | 0.00 | 0.00 | 44 | 1011.4 |
| 20260905230534 | 98 | 155 | 3.0 | 8.0 | 0.00 | 0.00 | 0.00 | 44 | 1011.4 |
| 20260905230103 | 98 | 103 | 4.0 | 8.0 | 0.00 | 0.00 | 0.00 | 44 | 1011.4 |
| 20260905225535 | 98 | 108 | 4.0 | 10.0 | 0.00 | 0.00 | 0.00 | 44 | 1011.3 |
| 20260905225034 | 98 | 109 | 5.0 | 10.0 | 0.00 | 0.00 | 0.00 | 44 | 1011.4 |
| 20260905224558 | 98 | 124 | 5.0 | 9.0 | 0.00 | 0.00 | 0.00 | 44 | 1011.3 |
| 20260905224033 | 99 | 198 | 3.0 | 5.0 | 0.00 | 0.00 | 0.00 | 43 | 1011.2 |